Flag for Canada Weather past 2 weeks in Montreal, Quebec, Canada

Now
70 °F

Fog.


Feels Like: 70 °F
Forecast: 68 / 84 °F
Wind: 12 mph from West

Location: Montreal - Pierre Elliot Trudeau International Aiport

Current Time: Sep 2, 2015 at 11:32:53 AM

Latest Report: Sep 2, 2015 at 11:00 AM


Visibility: 5 mi

Pressure: 29.97 "Hg

Humidity: 88%

Dew point: 66 °F

Location of MontrealLocation

Historic Weather in Montreal — Graph

°F

Montreal temperature yesterday

Maximum temperature yesterday: 81 °F (at 4:00 PM)
Minimum temperature yesterday: 59 °F (at 6:00 AM)
Average temperature yesterday: 71 °F

Past Weeks' High & Low Weather Summary

 TemperatureHumidityPressure
High88 °F (Aug 18, 3:00 PM)100% (Aug 19, 5:00 AM)30.17 "Hg (Aug 19, 5:00 AM)
Low57 °F (Aug 28, 4:00 AM)39% (Aug 23, 6:00 PM)29.75 "Hg (Aug 24, 4:00 PM)
Average71 °F73%29.98 "Hg
* Reported Aug 18 10:00 AM — Sep 2 10:00 AM, Montreal, Weather by CustomWeather, © 2015

Note: Actual official high and low records may vary slightly from our data, if they occured in-between our weather recording intervals... More about our weather records

Advertising

Montreal weather history for previous 24 hours

 ConditionsComfort  
Time TempWeatherWind HumidityBarometerVisibility
10:00 AM
Wed, Sep 2
68 °FFog.10 mph94%29.97 "Hg5 mi
9:00 AM68 °FDrizzle. Fog.8 mph94%29.97 "Hg2 mi
8:00 AM68 °FFog.8 mph94%29.98 "Hg4 mi
7:00 AM68 °FFog.10 mph94%29.98 "Hg6 mi
6:00 AM68 °FPassing clouds.10 mph94%29.97 "Hg15 mi
5:00 AM68 °FPartly cloudy.5 mph88%29.97 "Hg15 mi
4:00 AM68 °FPassing clouds.5 mph94%29.97 "Hg15 mi
3:00 AM70 °FPassing clouds.9 mph88%29.98 "Hg15 mi
2:00 AM70 °FPassing clouds.8 mph88%29.98 "Hg15 mi
1:00 AM70 °FPassing clouds.8 mph88%29.98 "Hg15 mi
12:00 AM72 °FPassing clouds.9 mph83%29.98 "Hg15 mi
11:00 PM
Tue, Sep 1
72 °FPassing clouds.7 mph83%29.98 "Hg15 mi
10:00 PM73 °FPassing clouds.9 mph78%29.98 "Hg15 mi
9:00 PM75 °FPassing clouds.8 mph78%29.98 "Hg15 mi
8:00 PM75 °FPassing clouds.6 mph74%29.98 "Hg15 mi
7:00 PM79 °FPassing clouds.7 mph65%29.98 "Hg15 mi
6:00 PM81 °FPassing clouds.14 mph58%29.98 "Hg15 mi
5:00 PM81 °FPassing clouds.10 mph62%29.98 "Hg15 mi
4:00 PM81 °FPartly sunny.12 mph58%29.98 "Hg15 mi
3:00 PM79 °FPartly sunny.10 mph61%30.00 "Hg15 mi
2:00 PM77 °FPartly sunny.12 mph65%30.02 "Hg15 mi
1:00 PM75 °FScattered clouds.10 mph69%30.03 "Hg15 mi
12:00 PM75 °FScattered clouds.8 mph65%30.04 "Hg15 mi
11:00 AM73 °FPassing clouds.8 mph57%30.06 "Hg15 mi
Weather by CustomWeather, © 2015

See weather overviewHow to use our weather pages